Home > Weather > Billings > Past weeks

Flag for USA Weather for the Past 2 Weeks in Billings, Montana, USA

Now
56 °F

Broken clouds.


Feels Like: 53 °F
Forecast: 54 / 66 °F
Wind: 13 mph from Northeast

Location: Billings Logan International Airport

Current Time: May 6, 2016 at 9:18:10 AM

Latest Report: May 6, 2016 at 8:53 AM


Visibility: 4 mi

Pressure: 30.12 "Hg (26.91 "Hg at 946m altitude)

Humidity: 60%

Dew Point: 42 °F

Location of BillingsLocation

Historic Weather in Billings — Graph

°F

Billings Temperature Yesterday

Maximum temperature yesterday: 84 °F (at 2:53 PM)
Minimum temperature yesterday: 55 °F (at 4:53 AM)
Average temperature yesterday: 69 °F

High & Low Weather Summary for the Past Weeks

 TemperatureHumidityPressure
High84 °F (May 5, 2:53 PM)100% (Apr 28, 1:00 AM)30.37 "Hg (Apr 28, 1:00 AM)
Low31 °F (Apr 28, 4:53 AM)12% (May 4, 3:53 PM)29.51 "Hg (Apr 23, 1:53 AM)
Average51 °F60%29.97 "Hg
* Reported Apr 21 7:53 AM — May 6 7:53 AM, Billings, Weather by CustomWeather, © 2016

Note: Actual official high and low records may vary slightly from our data, if they occured in-between our weather recording intervals... More about our weather records

Advertising

Billings Weather History for the Previous 24 Hours

Scroll right to see more
 ConditionsComfort  
Time TempWeatherWind HumidityBarometerVisibility
7:53 AM
Fri, May 6
55 °FBroken clouds.13 mph59%30.10 "Hg3 mi
6:53 AM55 °FPartly sunny.10 mph59%30.07 "Hg3 mi
5:53 AM56 °FLight rain. Mostly cloudy.13 mph58%30.01 "Hg3 mi
4:53 AM56 °FMostly cloudy.16 mph55%29.95 "Hg3 mi
3:53 AM60 °FPassing clouds.21 mph46%29.87 "Hg8 mi
2:53 AM63 °FPartly cloudy.17 mph48%29.83 "Hg10 mi
1:53 AM65 °FPartly cloudy.16 mph40%29.81 "Hg10 mi
12:53 AM65 °FPassing clouds.10 mph39%29.79 "Hg10 mi
11:53 PM
Thu, May 5
68 °FPassing clouds.6 mph33%29.78 "Hg10 mi
10:53 PM66 °FPassing clouds.5 mph39%29.80 "Hg10 mi
9:53 PM72 °FPassing clouds.No wind28%29.79 "Hg10 mi
8:53 PM75 °FPartly sunny.6 mph24%29.77 "Hg10 mi
7:53 PM77 °FBroken clouds.8 mph24%29.76 "Hg10 mi
6:53 PM79 °FBroken clouds.7 mph24%29.75 "Hg10 mi
5:53 PM82 °FBroken clouds.9 mph18%29.75 "Hg10 mi
4:53 PM84 °FScattered clouds.8 mph15%29.75 "Hg10 mi
3:53 PM84 °FScattered clouds.No wind15%29.78 "Hg10 mi
2:53 PM84 °FPartly sunny.10 mph14%29.79 "Hg10 mi
1:53 PM83 °FScattered clouds.8 mph17%29.80 "Hg10 mi
12:53 PM80 °FPartly sunny.9 mph22%29.82 "Hg10 mi
11:53 AM76 °FBroken clouds.14 mph26%29.84 "Hg10 mi
10:53 AM70 °FBroken clouds.13 mph31%29.84 "Hg10 mi
9:53 AM64 °FMore clouds than sun.9 mph45%29.85 "Hg10 mi
Weather by CustomWeather, © 2016

See weather overviewHow to use our weather pages